Location: Sternwarte-Kraichtal
(49.1689°N, 8.6996°E)
Time: 01:21:37
(UTC+02:00)

Tiros 1 despin weight - Visible Passes

Search period start: 29 May 2022 00:00
Search period end: 08 June 2022 00:00
Orbit: 592 x 639 km, 48.2° (Epoch: 28 May)

Date Brightness Start Highest point End Pass type
(mag) Time Alt. Az. Time Alt. Az. Time Alt. Az.
29 May ? 01:09:59 10° WSW 01:10:22 11° WSW 01:10:22 11° WSW visible
29 May ? 22:01:26 10° W 22:05:54 70° S 22:10:17 10° ESE visible
29 May ? 23:43:07 10° W 23:46:59 30° SSW 23:48:02 27° S visible
30 May ? 22:17:08 10° W 22:21:31 54° SSW 22:25:44 11° ESE visible
30 May ? 23:59:14 10° W 00:02:22 19° SW 00:02:43 19° SSW visible
31 May ? 22:32:54 10° W 22:37:03 38° SSW 22:40:26 14° SE visible
01 Jun ? 00:16:25 10° WSW 00:17:25 11° SW 00:17:25 11° SW visible
01 Jun ? 22:48:49 10° W 22:52:30 26° SSW 22:55:11 15° SSE visible
02 Jun ? 23:05:08 10° WSW 23:07:50 16° SW 23:09:58 12° S visible
05 Jun ? 22:11:09 10° WSW 22:13:15 13° SW 22:15:19 10° SSW visible
